Home   Weather   Grand Rapids   Past weeks

Flag for USA Past Weather in Grand Rapids, Michigan, USA — Yesterday and Last 2 Weeks

39 °F


Feels Like: 34 °F
Forecast: 38 / 48 °F
Wind: 7 mph from North

Location: Kent County International Airport

Current Time: Oct 27, 2016 at 8:47:59 AM

Latest Report: Oct 27, 2016 at 7:53 AM

Visibility: 4 mi

Pressure: 30.07 "Hg

Humidity: 93%

Dew Point: 37 °F

Location of Grand RapidsLocation

Past Weather in Grand Rapids — Graph


Grand Rapids Temperature Yesterday

Maximum temperature yesterday: 40 °F (at 10:53 AM)
Minimum temperature yesterday: 37 °F (at 1:53 AM)
Average temperature yesterday: 39 °F

High & Low Weather Summary for the Past Weeks

High76 °F (Oct 17, 5:53 PM)97% (Oct 16, 7:53 AM)30.48 "Hg (Oct 16, 7:53 AM)
Low33 °F (Oct 25, 3:53 AM)43% (Oct 25, 2:53 PM)29.49 "Hg (Oct 17, 8:53 PM)
Average53 °F74%30.07 "Hg
* Reported Oct 12 6:53 AM — Oct 27 6:53 AM, Grand Rapids, Weather by CustomWeather, © 2016

Note: Actual official high and low records may vary slightly from our data, if they occured in-between our weather recording intervals... More about our weather records


Grand Rapids Weather History for the Previous 24 Hours

Scroll right to see more
Time TempWeatherWind HumidityBarometerVisibility
6:53 AM
Thu, Oct 27
39 °FFog.8 mph93%30.06 "Hg5 mi
5:53 AM38 °FFog.10 mph93%30.04 "Hg4 mi
4:53 AM39 °FFog.10 mph93%30.03 "Hg6 mi
3:53 AM39 °FLight rain. Fog.12 mph93%30.03 "Hg4 mi
2:53 AM40 °FLight rain. Fog.12 mph89%30.03 "Hg2 mi
1:53 AM40 °FLight rain. Fog.10 mph89%30.04 "Hg4 mi
1:04 AM40 °FLight rain. Fog.13 mph89%30.03 "Hg2 mi
11:53 PM
Wed, Oct 26
39 °FLight rain. Fog.16 mph93%30.08 "Hg3 mi
10:53 PM39 °FLight rain. Fog.12 mph89%30.11 "Hg4 mi
9:53 PM38 °FLight rain. Fog.18 mph93%30.13 "Hg5 mi
8:53 PM38 °FLight rain. Low clouds.22 mph90%30.16 "Hg10 mi
7:53 PM37 °FLight rain. Low clouds.17 mph89%30.19 "Hg9 mi
6:53 PM37 °FRain. Fog.18 mph93%30.19 "Hg3 mi
5:53 PM38 °FRain. Fog.17 mph90%30.20 "Hg2 mi
4:53 PM39 °FLight rain. Fog.18 mph89%30.20 "Hg3 mi
3:53 PM39 °FLight rain. Fog.20 mph89%30.22 "Hg6 mi
2:53 PM40 °FLight rain. Fog.20 mph89%30.26 "Hg4 mi
1:53 PM40 °FLight rain. Mostly cloudy.20 mph89%30.30 "Hg8 mi
12:53 PM40 °FRain. Fog.17 mph89%30.33 "Hg3 mi
11:53 AM40 °FRain. Fog.18 mph89%30.34 "Hg2 mi
10:53 AM40 °FLight rain. Fog.12 mph89%30.39 "Hg5 mi
9:53 AM39 °FLight rain. Fog.15 mph89%30.39 "Hg5 mi
8:53 AM39 °FLight rain. Fog.13 mph89%30.39 "Hg3 mi
Weather by CustomWeather, © 2016

See weather overviewHow to use our weather pages